This is the latest recevied weather packets stored in our database for station/object ALANSN-2. If no packets are shown the sender has not sent any weather packets the latest 10 day(s).
| Time | Temp. | Humidity | Pressure | Rain* | Wind** | Luminosity | Snow |
|---|---|---|---|---|---|---|---|
| 1787692020 | 23.89° C | 62% | 1028.1 hPa | 0 mm | - | 500 W/m² | - |
| 1787691720 | 24.44° C | 64% | 1028.1 hPa | 0 mm | - | 494 W/m² | - |
| 1787691420 | 24.44° C | 63% | 1028 hPa | 0 mm | - | 242 W/m² | - |
| 1787691120 | 24.44° C | 63% | 1028 hPa | 0 mm | - | 242 W/m² | - |
| 1787690819 | 24.44° C | 64% | 1028.1 hPa | 0 mm | - | 237 W/m² | - |
| 1787690520 | 23.89° C | 60% | 1028.1 hPa | 0 mm | - | 514 W/m² | - |
| 1787690219 | 23.89° C | 60% | 1028.1 hPa | 0 mm | - | 514 W/m² | - |
| 1787689920 | 23.89° C | 59% | 1028.3 hPa | 0 mm | - | 382 W/m² | - |
| 1787689620 | 23.89° C | 59% | 1028.6 hPa | 0 mm | - | 346 W/m² | - |
| 1787689320 | 23.89° C | 59% | 1028.6 hPa | 0 mm | - | 346 W/m² | - |
| 1787689017 | 23.89° C | 60% | 1028.3 hPa | 0 mm | - | 350 W/m² | - |
| 1787688719 | 24.44° C | 59% | 1028.6 hPa | 0 mm | - | 307 W/m² | - |
| 1787688420 | 24.44° C | 59% | 1028.6 hPa | 0 mm | - | 307 W/m² | - |
| 1787688120 | 24.44° C | 60% | 1028.4 hPa | 0 mm | - | 353 W/m² | - |
| 1787687825 | 25° C | 60% | 1028.7 hPa | 0 mm | - | 385 W/m² | - |
| 1787687520 | 25° C | 60% | 1028.7 hPa | 0 mm | - | 385 W/m² | - |
| 1787687220 | 25° C | 59% | 1028.7 hPa | 0 mm | - | 478 W/m² | - |
| 1787686920 | 24.44° C | 63% | 1028.9 hPa | 0 mm | - | 568 W/m² | - |
| 1787686620 | 24.44° C | 63% | 1028.9 hPa | 0 mm | - | 568 W/m² | - |
| 1787686320 | 23.89° C | 61% | 1029 hPa | 0 mm | - | 540 W/m² | - |
| 1787686020 | 23.89° C | 62% | 1028.9 hPa | 0 mm | - | 540 W/m² | - |
| 1787685720 | 24.44° C | 63% | 1029.2 hPa | 0 mm | - | 531 W/m² | - |
| 1787685420 | 25° C | 61% | 1029.1 hPa | 0 mm | - | 573 W/m² | - |
| 1787685120 | 24.44° C | 63% | 1029.1 hPa | 0 mm | - | 534 W/m² | - |
| 1787684820 | 23.89° C | 63% | 1029.1 hPa | 0 mm | - | 486 W/m² | - |
* Rain latest hour (hover to see other rain measurements)
** Current wind speed in m/s (hover to see current wind gust speed)